Regional Weather Roundup
Issued by NWS Northern Indiana

Home | Current Version | Previous Version | Graphics & Text | Print | Product List | Glossary On
Versions: 1 2 3 4 5 6 7 8 9 10 11 12 13 14 15 16 17 18 19 20 21 22 23 24 25 26 27 28 29 30 31 32 33 34 35 36 37 38 39 40 41 42 43 44 45 46 47 48 49 50
000
ASUS43 KIWX 220800
RWRIWX

KIWX WEATHER ROUNDUP
NATIONAL WEATHER SERVICE NORTHERN INDIANA
400 AM EDT MON SEP 22 2014

NOTE: "FAIR" INDICATES FEW OR NO CLOUDS BELOW 12,000 FEET WITH NO
SIGNIFICANT WEATHER AND/OR OBSTRUCTIONS TO VISIBILITY.

* THESE STATIONS ARE NOT UNDER NWS QUALITY CONTROL. THEY ALSO MAY NOT
  REPORT WEATHER SUCH AS PRECIPITATION OR FOG.

INZ001>027-220900-
NORTHERN INDIANA

CITY           SKY/WX    TMP DP  RH WIND       PRES   REMARKS
VALPARAISO     MOCLDY    51  43  74 N5        30.15S
SOUTH BEND     CLOUDY    49  41  74 N9        30.15R
GOSHEN         CLOUDY   N/A N/A N/A N8        30.13S
ANGOLA*        CLOUDY    45  28  53 N6        30.11R
FORT WAYNE     PTCLDY    44  39  82 N10       30.12R
PERU/GRISSOM   CLEAR     48  48 100 N6        30.13R

$$
INZ028>050-220900-
CENTRAL INDIANA

CITY           SKY/WX    TMP DP  RH WIND       PRES   REMARKS
LAFAYETTE      PTCLDY    48  47  96 W3        30.14S
KOKOMO*        CLEAR     48  43  81 N3        30.13S
MUNCIE*        CLEAR     46  42  86 N8        30.11R
INDIANAPOLIS   PTCLDY    52  47  83 N5        30.13R

$$
MIZ043>046-050>051-056>058-064>065-071>073-077>080-220900-
SOUTHWEST LOWER MICHIGAN

CITY           SKY/WX    TMP DP  RH WIND       PRES   REMARKS
BATTLE CREEK   CLOUDY    47  38  71 NW9       30.12S
BENTON HARBOR  CLOUDY    48  40  73 NE8       30.15R
COLDWATER*     CLOUDY    47  39  72 N7        30.11S
HILLSDALE*     CLOUDY    47  39  75 N9        30.09S
HOLLAND        CLOUDY    49  39  68 N5        30.16S
GRAND RAPIDS   CLOUDY    48  39  71 NW10      30.14R
KALAMAZOO      CLOUDY    47  37  68 N10       30.13S
STURGIS*       CLOUDY    46  39  76 N3        30.12R
THREE RIVERS*  CLOUDY    47  40  76 N5        30.14R

$$
OHZ001>008-015>018-024>025-220900-
NORTHWEST OHIO

CITY           SKY/WX    TMP DP  RH WIND       PRES   REMARKS
DEFIANCE       CLOUDY   N/A N/A N/A NW8       30.10R
FINDLAY        CLOUDY    50  43  77 NW10      30.06R
TOLEDO EXPRESS CLOUDY    48  38  68 N12G18    30.08R
TOLEDO METCALF CLOUDY    49  38  65 NW13      30.08R
LIMA           CLOUDY    50  45  83 N7        30.07S

$$
AND FOR LAKE MICHIGAN COASTAL AND OPEN LAKE BUOY OBSERVATIONS

STATION/POSITION TEMP    WIND        PRES    VSBY  WAVE
                 AIR SEA DIR/SP/G                  HT/PER
                 (F)     (DEG/KT/KT) (MB)    (MI)  (FT/S)
CALUMET HARBOR    55     350/ 12/ 16 1020.3R
MICHIGAN CITY     55     350/ 22/ 26   N/A
SAINT JOSEPH      54     350/ 13/ 23 1020.3F
SOUTH LAKE BUOY   53 61  350/ 19/ 25 1021.1R         7/ 8
4 MI NW BRIDGMAN  55 65   10/ 17/ 23   N/A           7/ 6
MICHIGAN CITY     56 64  360/ 17/ 25   N/A           8/ 7

$$
&&



USA.gov is the U.S. government's official web portal to all federal, state and local government web resources and services.